Regional Weather Roundup
Issued by NWS

Home | Current Version | Previous Version | Graphics & Text | Print | Product List | Glossary On
Versions: 1 2 3 4 5 6 7 8 9 10 11 12 13 14 15 16 17 18 19 20 21 22 23 24 25 26 27 28 29 30 31 32 33 34 35 36 37 38 39 40 41 42 43 44 45 46 47 48 49 50
000
ASUS45 KTFX 050019
RWRMT
MONTANA HOURLY WEATHER ROUNDUP
NATIONAL WEATHER SERVICE GREAT FALLS MT
519 PM MST WED MAR 4 2015

NOTE: "FAIR" INDICATES FEW OR NO CLOUDS BELOW 12000 FEET WITH NO
SIGNIFICANT WEATHER AND/OR OBSTRUCTIONS TO VISIBILITY.

* THESE STATIONS ARE NOT UNDER NWS QUALITY CONTROL. THEY DO NOT
   REPORT WEATHER SUCH AS PRECIPITATION OR FOG.

MTZ001>007-043-050100-
WEST OF THE DIVIDE
CITY           SKY/WX    TMP DP  RH WIND       PRES   REMARKS
KALISPELL      CLEAR     36  12  37 S14       30.16F WCI  27
MISSOULA       CLEAR     37  14  39 S5        30.18F WCI  33
BUTTE          CLEAR     34   5  29 N7        30.07S WCI  28
MULLAN PASS    CLEAR     25   7  46 NW5       30.11S WCI  19
* ANACONDA     CLEAR     28   9  45 N8         N/A   WCI  20
* ESSEX        N/A       32   8  36 N1G6       N/A
* EUREKA APT   CLEAR     39   7  26 E3        30.16S
* HAMILTON APT CLEAR     41   9  27 N8        30.17S
* LIBBY APT    PTCLDY    43   3  19 CALM      30.18S
* LINCOLN      N/A       36   4  26 S8G18      N/A   WCI  30
* LOOKOUT PASS N/A       32   6  33 NE6        N/A   WCI  26
* POLSON       N/A       35  11  37 SW2G7      N/A
* RONAN APT    CLEAR     37  10  33 S5         N/A   WCI  33
* SEELEY LAKE  N/A       35   7  31 W8G17      N/A   WCI  28
* THOMP F APT  CLEAR     28   3  34 S10G18     N/A   WCI  19
$$

MTZ008-052>055-050100-
SOUTHWEST MONTANA
CITY           SKY/WX    TMP DP  RH WIND       PRES   REMARKS
BOZEMAN        CLEAR     30   7  38 SE6       30.11F WCI  24
DILLON         CLEAR     37   3  24 W16       30.07S WCI  28
* W YELLOWSTON CLEAR     25   2  37 SW5G12     N/A   WCI  19
* THREE FORKS  CLEAR     37   7  28 SE9        N/A   WCI  30
* BOULDER HILL N/A       32   1  26 S15        N/A   WCI  22
* MONIDA PASS  N/A       26   4  39 SW14       N/A   WCI  14
* RAYNOLDS PAS N/A       27  14  58 S6G11      N/A   WCI  20
* WHITEHALL    N/A       40   4  22 SW13G25    N/A   WCI  32
* WISE RIVER   N/A       35   1  23 W15G21     N/A   WCI  25
$$

MTZ009>010-012-014-046-048-049-054-050100-
EAST SLOPES AND CENTRAL MONTANA
CITY           SKY/WX    TMP DP  RH WIND       PRES   REMARKS
CUT BANK       CLEAR     34   9  35 W24G31    29.95F WCI  22
GREAT FALLS    CLEAR     36  10  34 SW21G28   29.99F WCI  25
HELENA         CLEAR     37   7  28 W15       30.07F WCI  28
MALMSTROM AFB  CLEAR     36  10  34 SW20G25   30.01F WCI  25
* CONRAD       CLEAR     39   5  24 S10G17     N/A   WCI  32
* DEARBORN     N/A       36   9  32 S12G18     N/A   WCI  28
* EAST GLACIER N/A       27   7  42 W22G35     N/A   WCI  13
* MONARCH      N/A       26  -1  31 SW15G24    N/A   WCI  14
* PENDROY      N/A       35   8  32 SW4        N/A
* ROGERS PASS  N/A       26   4  39 SE14G33    N/A   WCI  14
* SWEET GRASS  N/A       36  11  35 W11        N/A   WCI  28
* WHITE SULPH  N/A       32   4  30 SW5G11     N/A   WCI  27
$$

MTZ011-013-016-021-035-040-045-047-050-051-050100-
NORTH CENTRAL MONTANA
CITY           SKY/WX    TMP DP  RH WIND       PRES   REMARKS
HAVRE          PTCLDY    32   7  35 SW9       30.04F WCI  24
LEWISTOWN      CLEAR     27   9  46 S5        30.03F WCI  21
* N BAR RANCH  CLEAR     27   3  35 CALM      30.03F
* CHINOOK      PTCLDY    30   1  29 NE3       30.07F
* FORT BENTON  PTCLDY    37  10  33 S13       30.03F WCI  29
* CHESTER      N/A       37   2  23 SW6G11     N/A   WCI  32
* DENTON       N/A       33   2  26 SE2        N/A
* GEYSER       N/A       32   7  35 W14        N/A   WCI  22
* JUDITH GAP   N/A       24   3  40 VRB7       N/A   WCI  16
* LOMA         N/A       37  12  36 S15G22     N/A   WCI  28
$$

MTZ017>020-022>027-061-062-050100-
NORTHEAST MONTANA
CITY           SKY/WX    TMP DP  RH WIND       PRES   REMARKS
GLASGOW        PTCLDY    18  -6  34 S3        30.17F
GLENDIVE       CLEAR     16  -6  37 W7        30.20F WCI   6
JORDAN         CLEAR     25  -2  30 S7        30.13F WCI  17
SIDNEY         PTCLDY    12 -11  34 CALM      30.27F
WOLF POINT     PTCLDY    18  -6  34 SW7       30.23F WCI   9
* BEAVER HILL  N/A       13  -7  40 W11G16     N/A
* CIRCLE       N/A       19   0  43 W3G8       N/A
* LINDSAY DVD  N/A       15  -6  38 W12G18     N/A   WCI   1
* NAVAJO       N/A        9  -8  45 W4         N/A
* PLENTYWOOD A CLEAR      1  -9  62 E8        30.20F WCI -13
* POPLAR APT   CLEAR     16  -8  33 S7        30.23F WCI   6
* SACO         N/A       19  -4  36 E6         N/A   WCI  11
* SCOBEY APT   PTCLDY    12  -9  38 SW8        N/A
$$

MTZ028>042-056>058-050100-
SOUTHCENTRAL AND SOUTHEAST MONTANA
CITY           SKY/WX    TMP DP  RH WIND       PRES   REMARKS
BAKER          CLEAR     16  -4  40 NW9       30.18F WCI   5
BILLINGS       PTCLDY    30   9  41 SW14      30.07F WCI  19
LIVINGSTON     PTCLDY    32   7  35 W18G24    30.05F WCI  21
MILES CITY     CLEAR     23  -6  27 NW7       30.18F WCI  15
* BIG TIMBER A PTCLDY    30   3  31 W21G28    30.04F WCI  17
* FORSYTH APT  CLEAR     25  -6  25 CALM      30.17F
* LAUREL APT   CLEAR     28   7  41 S8         N/A   WCI  20
* ROUNDUP APT  CLEAR     32  -4  21 N/A        N/A
* ALZADA       N/A       15  -3  44 W10        N/A   WCI   3
* HYSHAM       N/A       25  -2  30 NW6G11     N/A   WCI  18
* REED POINT   N/A       34   8  33 W17G30     N/A   WCI  23
* ROSCOE HILL  N/A       19  -3  37 SE8        N/A   WCI   9
$$

REGIONAL REPORTS...DAKOTAS
CITY           SKY/WX    TMP DP  RH WIND       PRES   REMARKS
WILLISTON      CLEAR      7  -9  47 N/A       30.28F
DICKINSON      CLEAR     10  -9  41 NW8       30.20S WCI  -2
BEACH          CLEAR     12  -6  44 W8        30.20F
CROSBY         CLEAR      0 N/A N/A SW7       30.29F WCI -13
TIOGA          CLEAR     -2 -13  59 W6        30.28F WCI -14
WATFORD CITY   CLEAR      5  -9  52 CALM      30.25F
BISMARCK       CLEAR      5  -9  52 NW7       30.34S WCI  -7
GRAND FORKS    FAIR       1  -9  62 NW7       30.37R WCI -12
FARGO          FAIR       3  -8  60 NW13      30.37S WCI -14
BUFFALO SD     CLEAR     16  -6  37 NW15      30.12S WCI   1
RAPID CITY     CLEAR     16   0  49 N17       30.20S
$$

REGIONAL REPORTS...WYOMING/IDAHO/WASHINGTON
CITY           SKY/WX    TMP DP  RH WIND       PRES   REMARKS
GILLETTE       CLEAR     18   3  52 NW9       30.11S WCI   7
SHERIDAN       CLEAR     16   3  56 SW3       30.12S
CODY           CLEAR     23   7  50 SE8       30.06F WCI  14
YELLOWSTONE LA CLEAR     19  -6  32 VRB7      30.07R WCI  10
SALMON         CLEAR     37   3  24 CALM      30.17S
MULLAN PASS    CLEAR     25   7  46 NW5       30.11S WCI  19
SAND POINT     PTCLDY    43   9  25 SW8       30.23R
SPOKANE        MOCLDY    45  16  31 SW13      30.23S
$$

REGIONAL REPORTS...ALBERTA
CITY           SKY/WX    TMP DP  RH WIND       PRES   REMARKS
CALGARY        MOCLDY    34   9  35 S9        29.87F WCI  27
LETHBRIDGE     PTCLDY    37  12  36 SW23      29.93F WCI  26
MEDICINE HAT   FAIR      30   7  38 S13       30.00F WCI  20
EDMONTON       FAIR      21   9  60 SE5       29.90F WCI  14
WATERTON GATE  N/A       30  10  43 SW26G41    N/A   WCI  16
CARDSTON       N/A       34  16  48 W14G21     N/A   WCI  24
MILK RIVER     N/A       34  18  52 W13        N/A   WCI  25
$$

REGIONAL REPORTS...SASKATCHEWAN
CITY           SKY/WX    TMP DP  RH WIND       PRES   REMARKS
SWIFT CURRENT  FAIR      10   0  64 S7        30.05F WCI  -1
MOOSE JAW      FAIR       0 -11  59 S5        30.21F WCI -11
REGINA         FAIR      -8 -15  71 S8        30.23F WCI -24
VAL MARIE      N/A       19   0  43 S13        N/A   WCI   6
ASSINIBOIA     N/A        1  -9  62 SE6        N/A   WCI -11
CORONACH       N/A        9 -11  39 S2         N/A

$$



USA.gov is the U.S. government's official web portal to all federal, state and local government web resources and services.